Year,Month,Day,Hour,Minute,Value (Times are PST for temperature in C)
2014,08,23,00,00,16.80
2014,08,23,00,01,16.80
2014,08,23,00,02,16.80
2014,08,23,00,03,16.70
2014,08,23,00,04,16.70
2014,08,23,00,05,16.70
2014,08,23,00,06,16.70
2014,08,23,00,07,16.70
2014,08,23,00,08,16.70
2014,08,23,00,09,16.70
2014,08,23,00,10,16.80
2014,08,23,00,11,16.80
2014,08,23,00,12,16.80
2014,08,23,00,13,16.80
2014,08,23,00,14,16.90
2014,08,23,00,15,16.90
2014,08,23,00,16,16.90
2014,08,23,00,17,16.90
2014,08,23,00,18,16.90
2014,08,23,00,19,16.90
2014,08,23,00,20,16.90
2014,08,23,00,21,16.80
2014,08,23,00,22,16.80
2014,08,23,00,23,16.80
2014,08,23,00,24,16.80
2014,08,23,00,25,16.80
2014,08,23,00,26,16.80
2014,08,23,00,27,16.70
2014,08,23,00,28,16.70
2014,08,23,00,29,16.70
2014,08,23,00,30,16.70
2014,08,23,00,31,16.60
2014,08,23,00,32,16.60
2014,08,23,00,33,16.60
2014,08,23,00,34,16.50
2014,08,23,00,35,16.50
2014,08,23,00,36,16.40
2014,08,23,00,37,16.40
2014,08,23,00,38,16.40
2014,08,23,00,39,16.30
2014,08,23,00,40,16.30
2014,08,23,00,41,16.30
2014,08,23,00,42,16.30
2014,08,23,00,43,16.30
2014,08,23,00,44,16.30
2014,08,23,00,45,16.30
2014,08,23,00,46,16.30
2014,08,23,00,47,16.30
2014,08,23,00,48,16.40
2014,08,23,00,49,16.40
2014,08,23,00,50,16.30
2014,08,23,00,51,16.30
2014,08,23,00,52,16.30
2014,08,23,00,53,16.30
2014,08,23,00,54,16.30
2014,08,23,00,55,16.40
2014,08,23,00,56,16.40
2014,08,23,00,57,16.30
2014,08,23,00,58,16.30
2014,08,23,00,59,16.30
2014,08,23,01,00,16.30
2014,08,23,01,01,16.30
2014,08,23,01,02,16.20
2014,08,23,01,03,16.20
2014,08,23,01,04,16.20
2014,08,23,01,05,16.20
2014,08,23,01,06,16.20
2014,08,23,01,07,16.10
2014,08,23,01,08,16.10
2014,08,23,01,09,16.10
2014,08,23,01,10,16.10
2014,08,23,01,11,16.00
2014,08,23,01,12,16.00
2014,08,23,01,13,16.00
2014,08,23,01,14,15.90
2014,08,23,01,15,15.90
2014,08,23,01,16,15.90
2014,08,23,01,17,15.90
2014,08,23,01,18,15.90
2014,08,23,01,19,15.80
2014,08,23,01,20,15.80
2014,08,23,01,21,15.80
2014,08,23,01,22,15.80
2014,08,23,01,23,15.80
2014,08,23,01,24,15.80
2014,08,23,01,25,15.80
2014,08,23,01,26,15.80
2014,08,23,01,27,15.80
2014,08,23,01,28,15.80
2014,08,23,01,29,15.80
2014,08,23,01,30,15.80
2014,08,23,01,31,15.80
2014,08,23,01,32,15.80
2014,08,23,01,33,15.80
2014,08,23,01,34,15.80
2014,08,23,01,35,15.70
2014,08,23,01,36,15.70
2014,08,23,01,37,15.70
2014,08,23,01,38,15.70
2014,08,23,01,39,15.60
2014,08,23,01,40,15.60
2014,08,23,01,41,15.60
2014,08,23,01,42,15.60
2014,08,23,01,43,15.70
2014,08,23,01,44,15.60
2014,08,23,01,45,15.70
2014,08,23,01,46,15.70
2014,08,23,01,47,15.70
2014,08,23,01,48,15.70
2014,08,23,01,49,15.70
2014,08,23,01,50,15.70
2014,08,23,01,51,15.70
2014,08,23,01,52,15.70
2014,08,23,01,53,15.70
2014,08,23,01,54,15.70
2014,08,23,01,55,15.70
2014,08,23,01,56,15.70
2014,08,23,01,57,15.70
2014,08,23,01,58,15.70
2014,08,23,01,59,15.60
2014,08,23,02,00,15.60
2014,08,23,02,01,15.60
2014,08,23,02,02,15.60
2014,08,23,02,03,15.60
2014,08,23,02,04,15.60
2014,08,23,02,05,15.60
2014,08,23,02,06,15.60
2014,08,23,02,07,15.60
2014,08,23,02,08,15.60
2014,08,23,02,09,15.60
2014,08,23,02,10,15.60
2014,08,23,02,11,15.60
2014,08,23,02,12,15.60
2014,08,23,02,13,15.60
2014,08,23,02,14,15.60
2014,08,23,02,15,15.50
2014,08,23,02,16,15.50
2014,08,23,02,17,15.50
2014,08,23,02,18,15.50
2014,08,23,02,19,15.50
2014,08,23,02,20,15.50
2014,08,23,02,21,15.60
2014,08,23,02,22,15.60
2014,08,23,02,23,15.60
2014,08,23,02,24,15.60
2014,08,23,02,25,15.60
2014,08,23,02,26,15.60
2014,08,23,02,27,15.60
2014,08,23,02,28,15.60
2014,08,23,02,29,15.60
2014,08,23,02,30,15.60
2014,08,23,02,31,15.60
2014,08,23,02,32,15.60
2014,08,23,02,33,15.50
2014,08,23,02,34,15.50
2014,08,23,02,35,15.50
2014,08,23,02,36,15.40
2014,08,23,02,37,15.40
2014,08,23,02,38,15.40
2014,08,23,02,39,15.40
2014,08,23,02,40,15.40
2014,08,23,02,41,15.40
2014,08,23,02,42,15.40
2014,08,23,02,43,15.40
2014,08,23,02,44,15.40
2014,08,23,02,45,15.30
2014,08,23,02,46,15.30
2014,08,23,02,47,15.30
2014,08,23,02,48,15.30
2014,08,23,02,49,15.30
2014,08,23,02,50,15.30
2014,08,23,02,51,15.20
2014,08,23,02,52,15.20
2014,08,23,02,53,15.20
2014,08,23,02,54,15.20
2014,08,23,02,55,15.10
2014,08,23,02,56,15.10
2014,08,23,02,57,15.10
2014,08,23,02,58,15.10
2014,08,23,02,59,15.00
2014,08,23,03,00,15.00
2014,08,23,03,01,15.00
2014,08,23,03,02,14.90
2014,08,23,03,03,14.90
2014,08,23,03,04,14.90
2014,08,23,03,05,14.90
2014,08,23,03,06,14.80
2014,08,23,03,07,14.80
2014,08,23,03,08,14.80
2014,08,23,03,09,14.80
2014,08,23,03,10,14.80
2014,08,23,03,11,14.70
2014,08,23,03,12,14.70
2014,08,23,03,13,14.70
2014,08,23,03,14,14.70
2014,08,23,03,15,14.70
2014,08,23,03,16,14.70
2014,08,23,03,17,14.60
2014,08,23,03,18,14.60
2014,08,23,03,19,14.60
2014,08,23,03,20,14.60
2014,08,23,03,21,14.60
2014,08,23,03,22,14.50
2014,08,23,03,23,14.50
2014,08,23,03,24,14.50
2014,08,23,03,25,14.50
2014,08,23,03,26,14.40
2014,08,23,03,27,14.40
2014,08,23,03,28,14.40
2014,08,23,03,29,14.40
2014,08,23,03,30,14.40
2014,08,23,03,31,14.40
2014,08,23,03,32,14.40
2014,08,23,03,33,14.40
2014,08,23,03,34,14.40
2014,08,23,03,35,14.40
2014,08,23,03,36,14.40
2014,08,23,03,37,14.40
2014,08,23,03,38,14.40
2014,08,23,03,39,14.40
2014,08,23,03,40,14.40
2014,08,23,03,41,14.30
2014,08,23,03,42,14.30
2014,08,23,03,43,14.30
2014,08,23,03,44,14.30
2014,08,23,03,45,14.30
2014,08,23,03,46,14.30
2014,08,23,03,47,14.30
2014,08,23,03,48,14.30
2014,08,23,03,49,14.30
2014,08,23,03,50,14.30
2014,08,23,03,51,14.30
2014,08,23,03,52,14.30
2014,08,23,03,53,14.20
2014,08,23,03,54,14.20
2014,08,23,03,55,14.20
2014,08,23,03,56,14.20
2014,08,23,03,57,14.20
2014,08,23,03,58,14.20
2014,08,23,03,59,14.20
2014,08,23,04,00,14.10
2014,08,23,04,01,14.10
2014,08,23,04,02,14.10
2014,08,23,04,03,14.10
2014,08,23,04,04,14.10
2014,08,23,04,05,14.10
2014,08,23,04,06,14.00
2014,08,23,04,07,14.00
2014,08,23,04,08,14.00
2014,08,23,04,09,14.00
2014,08,23,04,10,14.00
2014,08,23,04,11,14.00
2014,08,23,04,12,14.00
2014,08,23,04,13,14.00
2014,08,23,04,14,14.10
2014,08,23,04,15,14.10
2014,08,23,04,16,14.10
2014,08,23,04,17,14.10
2014,08,23,04,18,14.10
2014,08,23,04,19,14.10
2014,08,23,04,20,14.10
2014,08,23,04,21,14.10
2014,08,23,04,22,14.10
2014,08,23,04,23,14.00
2014,08,23,04,24,14.00
2014,08,23,04,25,14.00
2014,08,23,04,26,14.00
2014,08,23,04,27,13.90
2014,08,23,04,28,13.90
2014,08,23,04,29,13.90
2014,08,23,04,30,13.90
2014,08,23,04,31,13.90
2014,08,23,04,32,13.90
2014,08,23,04,33,13.90
2014,08,23,04,34,13.90
2014,08,23,04,35,13.90
2014,08,23,04,36,13.80
2014,08,23,04,37,13.80
2014,08,23,04,38,13.80
2014,08,23,04,39,13.80
2014,08,23,04,40,13.80
2014,08,23,04,41,13.80
2014,08,23,04,42,13.90
2014,08,23,04,43,13.90
2014,08,23,04,44,13.90
2014,08,23,04,45,13.90
2014,08,23,04,46,13.90
2014,08,23,04,47,13.90
2014,08,23,04,48,13.90
2014,08,23,04,49,13.90
2014,08,23,04,50,13.90
2014,08,23,04,51,13.90
2014,08,23,04,52,13.80
2014,08,23,04,53,13.80
2014,08,23,04,54,13.80
2014,08,23,04,55,13.80
2014,08,23,04,56,13.80
2014,08,23,04,57,13.80
2014,08,23,04,58,13.80
2014,08,23,04,59,13.80
2014,08,23,05,00,13.80
2014,08,23,05,01,13.80
2014,08,23,05,02,13.80
2014,08,23,05,03,13.80
2014,08,23,05,04,13.80
2014,08,23,05,05,13.80
2014,08,23,05,06,13.80
2014,08,23,05,07,13.70
2014,08,23,05,08,13.70
2014,08,23,05,09,13.70
2014,08,23,05,10,13.70
2014,08,23,05,11,13.70
2014,08,23,05,12,13.70
2014,08,23,05,13,13.60
2014,08,23,05,14,13.60
2014,08,23,05,15,13.60
2014,08,23,05,16,13.60
2014,08,23,05,17,13.50
2014,08,23,05,18,13.50
2014,08,23,05,19,13.40
2014,08,23,05,20,13.40
2014,08,23,05,21,13.40
2014,08,23,05,22,13.40
2014,08,23,05,23,13.30
2014,08,23,05,24,13.30
2014,08,23,05,25,13.30
2014,08,23,05,26,13.30
2014,08,23,05,27,13.20
2014,08,23,05,28,13.20
2014,08,23,05,29,13.20
2014,08,23,05,30,13.20
2014,08,23,05,31,13.20
2014,08,23,05,32,13.20
2014,08,23,05,33,13.20
2014,08,23,05,34,13.20
2014,08,23,05,35,13.20
2014,08,23,05,36,13.20
2014,08,23,05,37,13.20
2014,08,23,05,38,13.20
2014,08,23,05,39,13.20
2014,08,23,05,40,13.20
2014,08,23,05,41,13.20
2014,08,23,05,42,13.20
2014,08,23,05,43,13.20
2014,08,23,05,44,13.20
2014,08,23,05,45,13.20
2014,08,23,05,46,13.30
2014,08,23,05,47,13.30
2014,08,23,05,48,13.30
2014,08,23,05,49,13.30
2014,08,23,05,50,13.30
2014,08,23,05,51,13.30
2014,08,23,05,52,13.30
2014,08,23,05,53,13.30
2014,08,23,05,54,13.30
2014,08,23,05,55,13.30
2014,08,23,05,56,13.30
2014,08,23,05,57,13.30
2014,08,23,05,58,13.30
2014,08,23,05,59,13.30
2014,08,23,06,00,13.30
2014,08,23,06,01,13.30
2014,08,23,06,02,13.20
2014,08,23,06,03,13.20
2014,08,23,06,04,13.20
2014,08,23,06,05,13.20
2014,08,23,06,06,13.20
2014,08,23,06,07,13.20
2014,08,23,06,08,13.20
2014,08,23,06,09,13.20
2014,08,23,06,10,13.20
2014,08,23,06,11,13.20
2014,08,23,06,12,13.20
2014,08,23,06,13,13.20
2014,08,23,06,14,13.20
2014,08,23,06,15,13.20
2014,08,23,06,16,13.20
2014,08,23,06,17,13.20
2014,08,23,06,18,13.20
2014,08,23,06,19,13.20
2014,08,23,06,20,13.20
2014,08,23,06,21,13.20
2014,08,23,06,22,13.20
2014,08,23,06,23,13.20
2014,08,23,06,24,13.20
2014,08,23,06,25,13.20
2014,08,23,06,26,13.20
2014,08,23,06,27,13.10
2014,08,23,06,28,13.10
2014,08,23,06,29,13.10
2014,08,23,06,30,13.10
2014,08,23,06,31,13.10
2014,08,23,06,32,13.00
2014,08,23,06,33,13.00
2014,08,23,06,34,13.00
2014,08,23,06,35,12.90
2014,08,23,06,36,12.90
2014,08,23,06,37,12.90
2014,08,23,06,38,12.90
2014,08,23,06,39,12.90
2014,08,23,06,40,12.90
2014,08,23,06,41,12.90
2014,08,23,06,42,12.90
2014,08,23,06,43,12.90
2014,08,23,06,44,12.90
2014,08,23,06,45,13.00
2014,08,23,06,46,13.00
2014,08,23,06,47,13.00
2014,08,23,06,48,13.00
2014,08,23,06,49,13.00
2014,08,23,06,50,13.00
2014,08,23,06,51,13.00
2014,08,23,06,52,13.10
2014,08,23,06,53,13.10
2014,08,23,06,54,13.10
2014,08,23,06,55,13.10
2014,08,23,06,56,13.10
2014,08,23,06,57,13.00
2014,08,23,06,58,13.00
2014,08,23,06,59,13.00
2014,08,23,07,00,13.00
2014,08,23,07,01,13.10
2014,08,23,07,02,13.10
2014,08,23,07,03,13.10
2014,08,23,07,04,13.10
2014,08,23,07,05,13.10
2014,08,23,07,06,13.20
2014,08,23,07,07,13.20
2014,08,23,07,08,13.20
2014,08,23,07,09,13.20
2014,08,23,07,10,13.20
2014,08,23,07,11,13.20
2014,08,23,07,12,13.20
2014,08,23,07,13,13.20
2014,08,23,07,14,13.20
2014,08,23,07,15,13.20
2014,08,23,07,16,13.20
2014,08,23,07,17,13.20
2014,08,23,07,18,13.30
2014,08,23,07,19,13.30
2014,08,23,07,20,13.30
2014,08,23,07,21,13.30
2014,08,23,07,22,13.30
2014,08,23,07,23,13.30
2014,08,23,07,24,13.30
2014,08,23,07,25,13.30
2014,08,23,07,26,13.30
2014,08,23,07,27,13.40
2014,08,23,07,28,13.40
2014,08,23,07,29,13.40
2014,08,23,07,30,13.40
2014,08,23,07,31,13.50
2014,08,23,07,32,13.50
2014,08,23,07,33,13.50
2014,08,23,07,34,13.60
2014,08,23,07,35,13.60
2014,08,23,07,36,13.60
2014,08,23,07,37,13.70
2014,08,23,07,38,13.70
2014,08,23,07,39,13.70
2014,08,23,07,40,13.80
2014,08,23,07,41,13.80
2014,08,23,07,42,13.80
2014,08,23,07,43,13.80
2014,08,23,07,44,13.80
2014,08,23,07,45,13.90
2014,08,23,07,46,13.90
2014,08,23,07,47,14.00
2014,08,23,07,48,14.00
2014,08,23,07,49,14.10
2014,08,23,07,50,14.10
2014,08,23,07,51,14.10
2014,08,23,07,52,14.20
2014,08,23,07,53,14.30
2014,08,23,07,54,14.30
2014,08,23,07,55,14.30
2014,08,23,07,56,14.40
2014,08,23,07,57,14.40
2014,08,23,07,58,14.50
2014,08,23,07,59,14.50
2014,08,23,08,00,14.60
2014,08,23,08,01,14.60
2014,08,23,08,02,14.70
2014,08,23,08,03,14.70
2014,08,23,08,04,14.70
2014,08,23,08,05,14.80
2014,08,23,08,06,14.80
2014,08,23,08,07,14.80
2014,08,23,08,08,14.90
2014,08,23,08,09,14.90
2014,08,23,08,10,15.00
2014,08,23,08,11,15.00
2014,08,23,08,12,15.10
2014,08,23,08,13,15.10
2014,08,23,08,14,15.20
2014,08,23,08,15,15.20
2014,08,23,08,16,15.30
2014,08,23,08,17,15.30
2014,08,23,08,18,15.30
2014,08,23,08,19,15.40
2014,08,23,08,20,15.40
2014,08,23,08,21,15.50
2014,08,23,08,22,15.50
2014,08,23,08,23,15.60
2014,08,23,08,24,15.60
2014,08,23,08,25,15.60
2014,08,23,08,26,15.70
2014,08,23,08,27,15.80
2014,08,23,08,28,15.80
2014,08,23,08,29,15.90
2014,08,23,08,30,15.90
2014,08,23,08,31,16.00
2014,08,23,08,32,16.10
2014,08,23,08,33,16.10
2014,08,23,08,34,16.20
2014,08,23,08,35,16.30
2014,08,23,08,36,16.30
2014,08,23,08,37,16.40
2014,08,23,08,38,16.50
2014,08,23,08,39,16.50
2014,08,23,08,40,16.60
2014,08,23,08,41,16.70
2014,08,23,08,42,16.80
2014,08,23,08,43,16.90
2014,08,23,08,44,16.90
2014,08,23,08,45,17.00
2014,08,23,08,46,17.10
2014,08,23,08,47,17.20
2014,08,23,08,48,17.30
2014,08,23,08,49,17.30
2014,08,23,08,50,17.40
2014,08,23,08,51,17.50
2014,08,23,08,52,17.60
2014,08,23,08,53,17.60
2014,08,23,08,54,17.70
2014,08,23,08,55,17.80
2014,08,23,08,56,17.90
2014,08,23,08,57,18.00
2014,08,23,08,58,18.10
2014,08,23,08,59,18.10
2014,08,23,09,00,18.20
2014,08,23,09,01,18.30
2014,08,23,09,02,18.40
2014,08,23,09,03,18.50
2014,08,23,09,04,18.60
2014,08,23,09,05,18.60
2014,08,23,09,06,18.70
2014,08,23,09,07,18.70
2014,08,23,09,08,18.80
2014,08,23,09,09,18.80
2014,08,23,09,10,18.90
2014,08,23,09,11,18.90
2014,08,23,09,12,19.00
2014,08,23,09,13,19.10
2014,08,23,09,14,19.10
2014,08,23,09,15,19.20
2014,08,23,09,16,19.30
2014,08,23,09,17,19.40
2014,08,23,09,18,19.40
2014,08,23,09,19,19.50
2014,08,23,09,20,19.60
2014,08,23,09,21,19.70
2014,08,23,09,22,19.80
2014,08,23,09,23,19.90
2014,08,23,09,24,20.00
2014,08,23,09,25,20.10
2014,08,23,09,26,20.20
2014,08,23,09,27,20.20
2014,08,23,09,28,20.30
2014,08,23,09,29,20.40
2014,08,23,09,30,20.50
2014,08,23,09,31,20.60
2014,08,23,09,32,20.70
2014,08,23,09,33,20.80
2014,08,23,09,34,20.90
2014,08,23,09,35,20.90
2014,08,23,09,36,21.00
2014,08,23,09,37,21.10
2014,08,23,09,38,21.20
2014,08,23,09,39,21.30
2014,08,23,09,40,21.30
2014,08,23,09,41,21.40
2014,08,23,09,42,21.40
2014,08,23,09,43,21.40
2014,08,23,09,44,21.40
2014,08,23,09,45,21.50
2014,08,23,09,46,21.50
2014,08,23,09,47,21.50
2014,08,23,09,48,21.50
2014,08,23,09,49,21.50
2014,08,23,09,50,21.60
2014,08,23,09,51,21.60
2014,08,23,09,52,21.60
2014,08,23,09,53,21.70
2014,08,23,09,54,21.80
2014,08,23,09,55,21.80
2014,08,23,09,56,21.80
2014,08,23,09,57,21.90
2014,08,23,09,58,21.90
2014,08,23,09,59,21.90
2014,08,23,10,00,22.00
2014,08,23,10,01,22.00
2014,08,23,10,02,22.10
2014,08,23,10,03,22.10
2014,08,23,10,04,22.10
2014,08,23,10,05,22.00
2014,08,23,10,06,22.00
2014,08,23,10,07,22.10
2014,08,23,10,08,22.10
2014,08,23,10,09,22.10
2014,08,23,10,10,22.10
2014,08,23,10,11,22.10
2014,08,23,10,12,22.10
2014,08,23,10,13,22.10
2014,08,23,10,14,22.10
2014,08,23,10,15,22.20
2014,08,23,10,16,22.20
2014,08,23,10,17,22.20
2014,08,23,10,18,22.30
2014,08,23,10,19,22.30
2014,08,23,10,20,22.40
2014,08,23,10,21,22.50
2014,08,23,10,22,22.50
2014,08,23,10,23,22.60
2014,08,23,10,24,22.70
2014,08,23,10,25,22.70
2014,08,23,10,26,22.80
2014,08,23,10,27,22.80
2014,08,23,10,28,22.80
2014,08,23,10,29,22.90
2014,08,23,10,30,22.90
2014,08,23,10,31,23.00
2014,08,23,10,32,23.10
2014,08,23,10,33,23.10
2014,08,23,10,34,23.20
2014,08,23,10,35,23.20
2014,08,23,10,36,23.20
2014,08,23,10,37,23.30
2014,08,23,10,38,23.30
2014,08,23,10,39,23.30
2014,08,23,10,40,23.30
2014,08,23,10,41,23.30
2014,08,23,10,42,23.30
2014,08,23,10,43,23.30
2014,08,23,10,44,23.30
2014,08,23,10,45,23.40
2014,08,23,10,46,23.40
2014,08,23,10,47,23.40
2014,08,23,10,48,23.50
2014,08,23,10,49,23.40
2014,08,23,10,50,23.50
2014,08,23,10,51,23.40
2014,08,23,10,52,23.50
2014,08,23,10,53,23.50
2014,08,23,10,54,23.50
2014,08,23,10,55,23.40
2014,08,23,10,56,23.30
2014,08,23,10,57,23.30
2014,08,23,10,58,23.30
2014,08,23,10,59,23.30
2014,08,23,11,00,23.30
2014,08,23,11,01,23.30
2014,08,23,11,02,23.30
2014,08,23,11,03,23.30
2014,08,23,11,04,23.30
2014,08,23,11,05,23.30
2014,08,23,11,06,23.40
2014,08,23,11,07,23.40
2014,08,23,11,08,23.40
2014,08,23,11,09,23.30
2014,08,23,11,10,23.30
2014,08,23,11,11,23.20
2014,08,23,11,12,23.10
2014,08,23,11,13,23.00
2014,08,23,11,14,22.90
2014,08,23,11,15,22.80
2014,08,23,11,16,22.80
2014,08,23,11,17,22.80
2014,08,23,11,18,22.70
2014,08,23,11,19,22.70
2014,08,23,11,20,22.70
2014,08,23,11,21,22.70
2014,08,23,11,22,22.80
2014,08,23,11,23,22.80
2014,08,23,11,24,22.80
2014,08,23,11,25,22.80
2014,08,23,11,26,22.90
2014,08,23,11,27,22.90
2014,08,23,11,28,22.90
2014,08,23,11,29,23.00
2014,08,23,11,30,23.10
2014,08,23,11,31,23.10
2014,08,23,11,32,23.10
2014,08,23,11,33,23.10
2014,08,23,11,34,23.10
2014,08,23,11,35,23.10
2014,08,23,11,36,23.10
2014,08,23,11,37,23.10
2014,08,23,11,38,23.10
2014,08,23,11,39,23.10
2014,08,23,11,40,23.10
2014,08,23,11,41,23.10
2014,08,23,11,42,23.10
2014,08,23,11,43,23.00
2014,08,23,11,44,23.00
2014,08,23,11,45,23.00
2014,08,23,11,46,23.00
2014,08,23,11,47,22.90
2014,08,23,11,48,22.90
2014,08,23,11,49,22.90
2014,08,23,11,50,23.00
2014,08,23,11,51,23.00
2014,08,23,11,52,23.00
2014,08,23,11,53,23.00
2014,08,23,11,54,23.00
2014,08,23,11,55,23.00
2014,08,23,11,56,23.00
2014,08,23,11,57,23.00
2014,08,23,11,58,23.00
2014,08,23,11,59,23.00
2014,08,23,12,00,23.00
2014,08,23,12,01,23.10
2014,08,23,12,02,23.00
2014,08,23,12,03,23.10
2014,08,23,12,04,23.10
2014,08,23,12,05,23.10
2014,08,23,12,06,23.10
2014,08,23,12,07,23.10
2014,08,23,12,08,23.10
2014,08,23,12,09,23.10
2014,08,23,12,10,23.20
2014,08,23,12,11,23.20
2014,08,23,12,12,23.20
2014,08,23,12,13,23.20
2014,08,23,12,14,23.20
2014,08,23,12,15,23.20
2014,08,23,12,16,23.20
2014,08,23,12,17,23.20
2014,08,23,12,18,23.20
2014,08,23,12,19,23.20
2014,08,23,12,20,23.20
2014,08,23,12,21,23.20
2014,08,23,12,22,23.30
2014,08,23,12,23,23.30
2014,08,23,12,24,23.30
2014,08,23,12,25,23.30
2014,08,23,12,26,23.30
2014,08,23,12,27,23.30
2014,08,23,12,28,23.30
2014,08,23,12,29,23.40
2014,08,23,12,30,23.40
2014,08,23,12,31,23.40
2014,08,23,12,32,23.40
2014,08,23,12,33,23.40
2014,08,23,12,34,23.40
2014,08,23,12,35,23.40
2014,08,23,12,36,23.40
2014,08,23,12,37,23.40
2014,08,23,12,38,23.40
2014,08,23,12,39,23.40
2014,08,23,12,40,23.40
2014,08,23,12,41,23.40
2014,08,23,12,42,23.40
2014,08,23,12,43,23.40
2014,08,23,12,44,23.40
2014,08,23,12,45,23.50
2014,08,23,12,46,23.50
2014,08,23,12,47,23.50
2014,08,23,12,48,23.60
2014,08,23,12,49,23.60
2014,08,23,12,50,23.60
2014,08,23,12,51,23.60
2014,08,23,12,52,23.70
2014,08,23,12,53,23.70
2014,08,23,12,54,23.70
2014,08,23,12,55,23.80
2014,08,23,12,56,23.80
2014,08,23,12,57,23.80
2014,08,23,12,58,23.80
2014,08,23,12,59,23.70
2014,08,23,13,00,23.80
2014,08,23,13,01,23.80
2014,08,23,13,02,23.70
2014,08,23,13,03,23.70
2014,08,23,13,04,23.70
2014,08,23,13,05,23.70
2014,08,23,13,06,23.70
2014,08,23,13,07,23.70
2014,08,23,13,08,23.70
2014,08,23,13,09,23.70
2014,08,23,13,10,23.70
2014,08,23,13,11,23.70
2014,08,23,13,12,23.70
2014,08,23,13,13,23.70
2014,08,23,13,14,23.70
2014,08,23,13,15,23.70
2014,08,23,13,16,23.70
2014,08,23,13,17,23.70
2014,08,23,13,18,23.70
2014,08,23,13,19,23.70
2014,08,23,13,20,23.70
2014,08,23,13,21,23.70
2014,08,23,13,22,23.70
2014,08,23,13,23,23.70
2014,08,23,13,24,23.80
2014,08,23,13,25,23.80
2014,08,23,13,26,23.80
2014,08,23,13,27,23.70
2014,08,23,13,28,23.70
2014,08,23,13,29,23.70
2014,08,23,13,30,23.70
2014,08,23,13,31,23.70
2014,08,23,13,32,23.70
2014,08,23,13,33,23.70
2014,08,23,13,34,23.70
2014,08,23,13,35,23.70
2014,08,23,13,36,23.80
2014,08,23,13,37,23.80
2014,08,23,13,38,23.80
2014,08,23,13,39,23.90
2014,08,23,13,40,23.90
2014,08,23,13,41,23.90
2014,08,23,13,42,23.90
2014,08,23,13,43,23.90
2014,08,23,13,44,23.90
2014,08,23,13,45,23.90
2014,08,23,13,46,23.80
2014,08,23,13,47,23.80
2014,08,23,13,48,23.80
2014,08,23,13,49,23.80
2014,08,23,13,50,23.80
2014,08,23,13,51,23.80
2014,08,23,13,52,23.80
2014,08,23,13,53,23.80
2014,08,23,13,54,23.80
2014,08,23,13,55,23.80
2014,08,23,13,56,23.80
2014,08,23,13,57,23.80
2014,08,23,13,58,23.80
2014,08,23,13,59,23.80
2014,08,23,14,00,23.90
2014,08,23,14,01,23.80
2014,08,23,14,02,23.80
2014,08,23,14,03,23.70
2014,08,23,14,04,23.60
2014,08,23,14,05,23.60
2014,08,23,14,06,23.60
2014,08,23,14,07,23.60
2014,08,23,14,08,23.60
2014,08,23,14,09,23.70
2014,08,23,14,10,23.70
2014,08,23,14,11,23.80
2014,08,23,14,12,23.80
2014,08,23,14,13,23.80
2014,08,23,14,14,23.80
2014,08,23,14,15,23.80
2014,08,23,14,16,23.80
2014,08,23,14,17,23.80
2014,08,23,14,18,23.80
2014,08,23,14,19,23.80
2014,08,23,14,20,23.80
2014,08,23,14,21,23.70
2014,08,23,14,22,23.70
2014,08,23,14,23,23.70
2014,08,23,14,24,23.70
2014,08,23,14,25,23.70
2014,08,23,14,26,23.70
2014,08,23,14,27,23.70
2014,08,23,14,28,23.70
2014,08,23,14,29,23.70
2014,08,23,14,30,23.70
2014,08,23,14,31,23.70
2014,08,23,14,32,23.80
2014,08,23,14,33,23.80
2014,08,23,14,34,23.80
2014,08,23,14,35,23.90
2014,08,23,14,36,23.90
2014,08,23,14,37,24.00
2014,08,23,14,38,24.00
2014,08,23,14,39,24.10
2014,08,23,14,40,24.10
2014,08,23,14,41,24.10
2014,08,23,14,42,24.10
2014,08,23,14,43,24.20
2014,08,23,14,44,24.20
2014,08,23,14,45,24.20
2014,08,23,14,46,24.30
2014,08,23,14,47,24.30
2014,08,23,14,48,24.30
2014,08,23,14,49,24.30
2014,08,23,14,50,24.40
2014,08,23,14,51,24.40
2014,08,23,14,52,24.40
2014,08,23,14,53,24.40
2014,08,23,14,54,24.40
2014,08,23,14,55,24.40
2014,08,23,14,56,24.30
2014,08,23,14,57,24.40
2014,08,23,14,58,24.40
2014,08,23,14,59,24.40
2014,08,23,15,00,24.40
2014,08,23,15,01,24.30
2014,08,23,15,02,24.30
2014,08,23,15,03,24.20
2014,08,23,15,04,24.20
2014,08,23,15,05,24.20
2014,08,23,15,06,24.10
2014,08,23,15,07,24.10
2014,08,23,15,08,24.20
2014,08,23,15,09,24.20
2014,08,23,15,10,24.20
2014,08,23,15,11,24.20
2014,08,23,15,12,24.20
2014,08,23,15,13,24.10
2014,08,23,15,14,24.10
2014,08,23,15,15,24.10
2014,08,23,15,16,24.10
2014,08,23,15,17,24.10
2014,08,23,15,18,24.10
2014,08,23,15,19,24.10
2014,08,23,15,20,24.20
2014,08,23,15,21,24.20
2014,08,23,15,22,24.30
2014,08,23,15,23,24.30
2014,08,23,15,24,24.30
2014,08,23,15,25,24.30
2014,08,23,15,26,24.30
2014,08,23,15,27,24.40
2014,08,23,15,28,24.40
2014,08,23,15,29,24.40
2014,08,23,15,30,24.40
2014,08,23,15,31,24.40
2014,08,23,15,32,24.50
2014,08,23,15,33,24.50
2014,08,23,15,34,24.50
2014,08,23,15,35,24.60
2014,08,23,15,36,24.50
2014,08,23,15,37,24.60
2014,08,23,15,38,24.60
2014,08,23,15,39,24.60
2014,08,23,15,40,24.60
2014,08,23,15,41,24.60
2014,08,23,15,42,24.60
2014,08,23,15,43,24.70
2014,08,23,15,44,24.70
2014,08,23,15,45,24.70
2014,08,23,15,46,24.80
2014,08,23,15,47,24.80
2014,08,23,15,48,24.80
2014,08,23,15,49,24.90
2014,08,23,15,50,24.90
2014,08,23,15,51,24.90
2014,08,23,15,52,24.90
2014,08,23,15,53,24.90
2014,08,23,15,54,25.00
2014,08,23,15,55,24.90
2014,08,23,15,56,24.90
2014,08,23,15,57,25.00
2014,08,23,15,58,25.00
2014,08,23,15,59,25.00
2014,08,23,16,00,25.00
2014,08,23,16,01,25.00
2014,08,23,16,02,25.00
2014,08,23,16,03,25.00
2014,08,23,16,04,25.00
2014,08,23,16,05,25.00
2014,08,23,16,06,25.00
2014,08,23,16,07,24.90
2014,08,23,16,08,24.90
2014,08,23,16,09,24.80
2014,08,23,16,10,24.80
2014,08,23,16,11,24.80
2014,08,23,16,12,24.80
2014,08,23,16,13,24.80
2014,08,23,16,14,24.90
2014,08,23,16,15,24.90
2014,08,23,16,16,24.90
2014,08,23,16,17,24.90
2014,08,23,16,18,24.90
2014,08,23,16,19,24.90
2014,08,23,16,20,24.80
2014,08,23,16,21,24.80
2014,08,23,16,22,24.80
2014,08,23,16,23,24.80
2014,08,23,16,24,24.80
2014,08,23,16,25,24.80
2014,08,23,16,26,24.80
2014,08,23,16,27,24.80
2014,08,23,16,28,24.80
2014,08,23,16,29,24.80
2014,08,23,16,30,24.80
2014,08,23,16,31,24.80
2014,08,23,16,32,24.80
2014,08,23,16,33,24.80
2014,08,23,16,34,24.80
2014,08,23,16,35,24.80
2014,08,23,16,36,24.80
2014,08,23,16,37,24.80
2014,08,23,16,38,24.80
2014,08,23,16,39,24.90
2014,08,23,16,40,24.90
2014,08,23,16,41,25.00
2014,08,23,16,42,25.00
2014,08,23,16,43,25.10
2014,08,23,16,44,25.10
2014,08,23,16,45,25.10
2014,08,23,16,46,25.10
2014,08,23,16,47,25.10
2014,08,23,16,48,25.10
2014,08,23,16,49,25.10
2014,08,23,16,50,25.00
2014,08,23,16,51,25.00
2014,08,23,16,52,25.00
2014,08,23,16,53,25.00
2014,08,23,16,54,24.90
2014,08,23,16,55,24.90
2014,08,23,16,56,24.90
2014,08,23,16,57,24.90
2014,08,23,16,58,24.90
2014,08,23,16,59,24.90
2014,08,23,17,00,24.90
2014,08,23,17,01,24.90
2014,08,23,17,02,24.80
2014,08,23,17,03,24.80
2014,08,23,17,04,24.80
2014,08,23,17,05,24.80
2014,08,23,17,06,24.80
2014,08,23,17,07,24.80
2014,08,23,17,08,24.80
2014,08,23,17,09,24.80
2014,08,23,17,10,24.80
2014,08,23,17,11,24.80
2014,08,23,17,12,24.80
2014,08,23,17,13,24.80
2014,08,23,17,14,24.80
2014,08,23,17,15,24.80
2014,08,23,17,16,24.80
2014,08,23,17,17,24.80
2014,08,23,17,18,24.80
2014,08,23,17,19,24.80